Algona, IA

8:20 PM CDT on June 27, 2017 (GMT -0500)
Algona Municipal

Weather History for KAXA - August, 2015

Change the Weather History Date:

Tuesday, August 25, 2015

  Actual Average Record
Temperature  
Mean Temperature 60 °F -  
Max Temperature 71 °F 78 °F 91 °F (2003)
Min Temperature 50 °F 59 °F 46 °F (2008)
Degree Days  
Heating Degree Days 4    
Growing Degree Days 10 (Base 50)    
Moisture  
Dew Point 49 °F    
Average Humidity 70    
Maximum Humidity 94    
Minimum Humidity 40    
Precipitation  
Precipitation 0.00 in - - ()
Sea Level Pressure  
Sea Level Pressure 30.15 in    
Wind  
Wind Speed 8 mph (NW)    
Max Wind Speed 14 mph    
Max Gust Speed 17 mph    
Visibility 10 miles    
Events      
Averages and records for this station are not official NWS values.
T = Trace of Precipitation, MM = Missing Value Source: NWS Daily Summary

Daily Weather History Graph

Daily Weather History Graph

Search for Another Location

Airport or City:

Trip Planner

Search our weather history database for the weather conditions in past years. The results will help you decide how hot, cold, wet, or windy it might be!

Date:

Astronomy

Aug. 25, 2015 Rise Set
Actual Time 6:33 AM CDT 8:04 PM CDT
Civil Twilight 6:03 AM CDT 8:33 PM CDT
Nautical Twilight 5:27 AM CDT 9:09 PM CDT
Astronomical Twilight 4:49 AM CDT 9:47 PM CDT
Moon 4:55 PM CDT (8/25) 1:57 AM CDT (8/25)
Length of Visible Light 14h 30m
Length of Day
13h 30m
Waxing Gibbous, 79% of the Moon is Illuminated
Aug 25
Waxing Gibbous
Aug 29
Full
Sep 5
Last Quarter
Sep 13
New
Sep 21
First Quarter

Hourly Weather History & Observations

Time (CDT) Temp. Dew Point Humidity Pressure Visibility Wind Dir Wind Speed Gust Speed Precip Events Conditions
12:15 AM 51.8 °F 50.0 °F 94% 30.12 in 10.0 mi West 6.9 mph - N/A   Clear
12:35 AM 51.8 °F 50.0 °F 94% 30.12 in 10.0 mi WNW 6.9 mph - N/A   Clear
12:55 AM 51.8 °F 50.0 °F 94% 30.12 in 10.0 mi WNW 6.9 mph - N/A   Clear
1:15 AM 51.8 °F 50.0 °F 94% 30.12 in 10.0 mi WNW 6.9 mph - N/A   Clear
1:35 AM 51.8 °F 50.0 °F 94% 30.12 in 10.0 mi West 6.9 mph - N/A   Clear
1:55 AM 51.8 °F 50.0 °F 94% 30.12 in 10.0 mi WNW 6.9 mph - N/A   Clear
2:15 AM 51.8 °F 48.2 °F 88% 30.12 in 10.0 mi WNW 6.9 mph - N/A   Clear
2:35 AM 51.8 °F 48.2 °F 88% 30.12 in 10.0 mi WNW 6.9 mph - N/A   Clear
2:55 AM 53.6 °F 50.0 °F 88% 30.12 in 10.0 mi NW 8.1 mph - N/A   Clear
3:15 AM 51.8 °F 50.0 °F 94% 30.12 in 10.0 mi NW 6.9 mph - N/A   Clear
3:35 AM 51.8 °F 48.2 °F 88% 30.12 in 10.0 mi NW 5.8 mph - N/A   Clear
3:55 AM 51.8 °F 48.2 °F 88% 30.13 in 10.0 mi WNW 5.8 mph - N/A   Clear
4:15 AM 50.0 °F 48.2 °F 94% 30.13 in 10.0 mi WNW 5.8 mph - N/A   Clear
4:35 AM 50.0 °F 48.2 °F 94% 30.13 in 10.0 mi WNW 4.6 mph - N/A   Clear
4:55 AM 50.0 °F 48.2 °F 94% 30.13 in 10.0 mi NW 6.9 mph - N/A   Clear
5:15 AM 50.0 °F 46.4 °F 87% 30.13 in 10.0 mi NW 6.9 mph - N/A   Clear
5:35 AM 50.0 °F 46.4 °F 87% 30.14 in 10.0 mi NW 8.1 mph - N/A   Clear
5:55 AM 50.0 °F 46.4 °F 87% 30.14 in 10.0 mi NW 8.1 mph - N/A   Clear
6:15 AM 50.0 °F 46.4 °F 87% 30.15 in 10.0 mi NW 5.8 mph - N/A   Clear
6:35 AM 50.0 °F 46.4 °F 87% 30.15 in 10.0 mi NW 8.1 mph - N/A   Clear
6:55 AM 50.0 °F 46.4 °F 87% 30.15 in 10.0 mi NW 6.9 mph - N/A   Clear
7:15 AM 50.0 °F 46.4 °F 87% 30.16 in 10.0 mi NW 8.1 mph - N/A   Clear
7:35 AM 51.8 °F 46.4 °F 82% 30.16 in 10.0 mi NW 6.9 mph - N/A   Clear
7:55 AM 53.6 °F 48.2 °F 82% 30.17 in 10.0 mi NNW 9.2 mph - N/A   Clear
8:15 AM 53.6 °F 48.2 °F 82% 30.17 in 10.0 mi NNW 8.1 mph - N/A   Clear
8:35 AM 55.4 °F 50.0 °F 82% 30.17 in 10.0 mi NNW 8.1 mph - N/A   Clear
8:55 AM 57.2 °F 50.0 °F 77% 30.18 in 10.0 mi NNW 8.1 mph - N/A   Clear
9:15 AM 59.0 °F 50.0 °F 72% 30.18 in - NNW 8.1 mph - N/A   Clear
9:35 AM 60.8 °F 50.0 °F 68% 30.18 in 10.0 mi North 10.4 mph 16.1 mph N/A   Clear
9:55 AM 60.8 °F 50.0 °F 68% 30.18 in 10.0 mi North 10.4 mph - N/A   Clear
10:15 AM 62.6 °F 48.2 °F 59% 30.18 in 10.0 mi NNW 10.4 mph - N/A   Clear
10:35 AM 64.4 °F 48.2 °F 56% 30.19 in 10.0 mi North 9.2 mph 16.1 mph N/A   Clear
10:55 AM 64.4 °F 46.4 °F 52% 30.19 in 10.0 mi North 13.8 mph - N/A   Clear
11:15 AM 64.4 °F 46.4 °F 52% 30.19 in 10.0 mi North 10.4 mph 17.3 mph N/A   Clear
11:35 AM 66.2 °F 46.4 °F 49% 30.19 in 10.0 mi NNW 11.5 mph - N/A   Clear
11:55 AM 66.2 °F 46.4 °F 49% 30.18 in 10.0 mi North 12.7 mph - N/A   Clear
12:15 PM 66.2 °F 46.4 °F 49% 30.18 in 10.0 mi NNW 9.2 mph 17.3 mph N/A   Clear
12:35 PM 68.0 °F 44.6 °F 43% 30.18 in 10.0 mi North 10.4 mph 17.3 mph N/A   Clear
12:55 PM 68.0 °F 44.6 °F 43% 30.17 in 9.0 mi NNW 10.4 mph - N/A   Clear
1:15 PM 68.0 °F 44.6 °F 43% 30.17 in 10.0 mi NNW 12.7 mph - N/A   Clear
1:35 PM 69.8 °F 46.4 °F 43% 30.17 in 10.0 mi NNW 12.7 mph - N/A   Clear
1:55 PM 69.8 °F 44.6 °F 40% 30.16 in 10.0 mi North 11.5 mph - N/A   Clear
2:15 PM 69.8 °F 46.4 °F 43% 30.16 in 10.0 mi NNW 10.4 mph 16.1 mph N/A   Clear
2:35 PM 71.6 °F 48.2 °F 43% 30.16 in 10.0 mi NW 10.4 mph - N/A   Clear
2:55 PM 71.6 °F 46.4 °F 41% 30.15 in 10.0 mi NNW 8.1 mph 16.1 mph N/A   Clear
3:15 PM 71.6 °F 48.2 °F 43% 30.15 in 10.0 mi NNW 11.5 mph - N/A   Clear
3:35 PM 71.6 °F 48.2 °F 43% 30.14 in 10.0 mi NNW 10.4 mph - N/A   Clear
3:55 PM 71.6 °F 48.2 °F 43% 30.14 in 10.0 mi NNW 8.1 mph 15.0 mph N/A   Clear
4:15 PM 71.6 °F 48.2 °F 43% 30.14 in 10.0 mi NNW 9.2 mph 15.0 mph N/A   Clear
4:35 PM 71.6 °F 48.2 °F 43% 30.13 in 10.0 mi NNW 9.2 mph - N/A   Clear
4:55 PM 71.6 °F 50.0 °F 46% 30.13 in 10.0 mi NW 8.1 mph - N/A   Clear
5:15 PM 71.6 °F 48.2 °F 43% 30.13 in 10.0 mi NNW 10.4 mph - N/A   Clear
5:35 PM 71.6 °F 48.2 °F 43% 30.13 in 10.0 mi NW 9.2 mph 15.0 mph N/A   Clear
5:55 PM 71.6 °F 48.2 °F 43% 30.13 in 10.0 mi NNW 6.9 mph - N/A   Clear
6:15 PM 71.6 °F 51.8 °F 50% 30.13 in 10.0 mi NNW 6.9 mph - N/A   Clear
6:35 PM 69.8 °F 51.8 °F 53% 30.13 in 10.0 mi NNW 5.8 mph - N/A   Clear
6:55 PM 69.8 °F 53.6 °F 56% 30.13 in 10.0 mi NNW 4.6 mph - N/A   Clear
7:15 PM 68.0 °F 53.6 °F 60% 30.13 in 10.0 mi NNW 4.6 mph - N/A   Clear
7:35 PM 68.0 °F 53.6 °F 60% 30.12 in 10.0 mi NNW 4.6 mph - N/A   Clear
7:55 PM 66.2 °F 53.6 °F 64% 30.12 in 10.0 mi NNW 4.6 mph - N/A   Clear
8:15 PM 66.2 °F 53.6 °F 64% 30.13 in 10.0 mi NNW 4.6 mph - N/A   Clear
8:35 PM 64.4 °F 53.6 °F 68% 30.13 in 10.0 mi NNW 4.6 mph - N/A   Clear
8:55 PM 62.6 °F 53.6 °F 72% 30.14 in 10.0 mi NNW 4.6 mph - N/A   Clear
9:15 PM 60.8 °F 53.6 °F 77% 30.14 in 10.0 mi NNW 4.6 mph - N/A   Clear
9:35 PM 60.8 °F 53.6 °F 77% 30.15 in 10.0 mi NNW 4.6 mph - N/A   Clear
9:55 PM 57.2 °F 53.6 °F 88% 30.16 in 10.0 mi Calm Calm - N/A   Clear
10:15 PM 55.4 °F 51.8 °F 88% 30.16 in 10.0 mi NW 3.5 mph - N/A   Clear
10:35 PM 53.6 °F 51.8 °F 94% 30.17 in 10.0 mi WNW 4.6 mph - N/A   Clear
10:55 PM 55.4 °F 51.8 °F 88% 30.17 in 10.0 mi WNW 5.8 mph - N/A   Clear
11:15 PM 55.4 °F 51.8 °F 88% 30.17 in 10.0 mi NW 5.8 mph - N/A   Clear
11:35 PM 55.4 °F 51.8 °F 88% 30.17 in 10.0 mi NW 4.6 mph - N/A   Clear
11:55 PM 55.4 °F 51.8 °F 88% 30.17 in 10.0 mi NW 5.8 mph - N/A   Clear